| time (UTC) | temp C | wind direction | speed KPH | gust KPH | rain 1hr cm | rain 24hr cm | rain mn cm | humidity % | barometer mb |
| 20260505040049 | 6 | 338 | 0.0 | 1.6 | 0.15 | 0.99 | 0.48 | 96 | 1012.1 |
| 20260505034501 | 6 | 215 | 0.0 | 3.2 | 0.15 | 1.07 | 0.43 | 95 | 1012.6 |
| 20260505033055 | 7 | 257 | 0.0 | 1.6 | 0.13 | 1.02 | 0.38 | 95 | 1012.8 |
| 20260505031553 | 7 | 262 | 0.0 | 1.6 | 0.13 | 0.99 | 0.36 | 95 | 1012.8 |
| 20260505030107 | 7 | 274 | 0.0 | 1.6 | 0.15 | 0.97 | 0.33 | 95 | 1013.0 |
| 20260505024610 | 7 | 254 | 0.0 | 0.0 | 0.15 | 1.07 | 0.28 | 94 | 1013.2 |
| 20260505023049 | 7 | 237 | 1.6 | 3.2 | 0.15 | 1.04 | 0.25 | 93 | 1013.4 |
| 20260505021554 | 7 | 320 | 0.0 | 4.8 | 0.13 | 1.02 | 0.23 | 89 | 1013.4 |
| 20260505020103 | 8 | 221 | 0.0 | 3.2 | 0.08 | 0.97 | 0.18 | 89 | 1013.6 |
| 20260505014555 | 8 | 224 | 1.6 | 3.2 | 0.03 | 0.99 | 0.13 | 86 | 1013.8 |
| 20260505013046 | 8 | 147 | 1.6 | 3.2 | 0.00 | 0.97 | 0.10 | 83 | 1013.9 |
| 20260505011545 | 8 | 88 | 1.6 | 8.0 | 0.00 | 0.97 | 0.10 | 83 | 1014.0 |
| 20260505010112 | 9 | 169 | 1.6 | 8.0 | 0.00 | 0.97 | 0.10 | 81 | 1014.4 |
| 20260505004551 | 9 | 160 | 3.2 | 14.5 | 0.00 | 1.04 | 0.10 | 80 | 1014.8 |
| 20260505003003 | 8 | 253 | 6.4 | 17.7 | 0.03 | 1.04 | 0.10 | 79 | 1015.1 |
| 20260505001518 | 9 | 148 | 3.2 | 9.7 | 0.05 | 1.04 | 0.10 | 83 | 1015.4 |
| 20260505000011 | 8 | 79 | 1.6 | 8.0 | 0.05 | 1.04 | 0.10 | 87 | 1015.8 |
| 20260504234521 | 8 | 96 | 3.2 | 8.0 | 0.05 | 1.09 | 0.10 | 88 | 1016.2 |
| 20260504233036 | 8 | 81 | 1.6 | 4.8 | 0.03 | 1.07 | 0.08 | 88 | 1016.5 |
| 20260504231508 | 8 | 105 | 0.0 | 4.8 | 0.00 | 1.04 | 0.05 | 86 | 1016.7 |
| 20260504230005 | 8 | 120 | 3.2 | 0.0 | 0.00 | 0.00 | 0.05 | 86 | 1016.7 |
| 20260504224524 | 8 | 109 | 1.6 | 6.4 | 0.00 | 1.09 | 0.05 | 82 | 1016.8 |
| 20260504223008 | 8 | 82 | 0.0 | 4.8 | 0.00 | 1.09 | 0.05 | 87 | 1017.2 |
| 20260504221625 | 8 | 38 | 0.0 | 3.2 | 0.00 | 1.09 | 0.05 | 86 | 1017.4 |
| 20260504220059 | 8 | 6 | 0.0 | 3.2 | 0.00 | 1.09 | 0.05 | 89 | 1017.5 |
| 20260504214555 | 7 | 360 | 0.0 | 3.2 | 0.00 | 1.12 | 0.05 | 89 | 1017.7 |
| 20260504213044 | 7 | 6 | 0.0 | 3.2 | 0.00 | 1.12 | 0.05 | 90 | 1018.2 |
| 20260504211602 | 7 | 72 | 0.0 | 4.8 | 0.00 | 1.12 | 0.05 | 91 | 1018.3 |
| 20260504204550 | 7 | 126 | 0.0 | 1.6 | 0.03 | 1.12 | 0.05 | 90 | 1018.9 |
| 20260504203044 | 6 | 132 | 0.0 | 3.2 | 0.03 | 1.12 | 0.05 | 90 | 1019.2 |
| 20260504201602 | 6 | 352 | 0.0 | 4.8 | 0.00 | 1.09 | 0.03 | 92 | 1019.2 |
| 20260504200059 | 6 | 97 | 1.6 | 3.2 | 0.00 | 1.09 | 0.03 | 92 | 1019.3 |
| 20260504194506 | 6 | 46 | 0.0 | 3.2 | 0.00 | 1.09 | 0.03 | 92 | 1019.3 |
| 20260504193055 | 6 | 51 | 0.0 | 4.8 | 0.00 | 1.09 | 0.03 | 92 | 1019.4 |
| 20260504191605 | 5 | 74 | 0.0 | 6.4 | 0.00 | 1.09 | 0.03 | 93 | 1019.6 |
| 20260504190100 | 5 | 70 | 1.6 | 8.0 | 0.00 | 1.09 | 0.03 | 92 | 1019.9 |
| 20260504184557 | 5 | 84 | 1.6 | 8.0 | 0.00 | 1.09 | 0.03 | 92 | 1019.9 |
| 20260504183046 | 5 | 84 | 1.6 | 9.7 | 0.00 | 1.09 | 0.03 | 94 | 1020.0 |
| 20260504181545 | 5 | 99 | 3.2 | 11.3 | 0.00 | 1.09 | 0.03 | 93 | 1020.2 |
| 20260504180055 | 5 | 62 | 1.6 | 9.7 | 0.00 | 1.09 | 0.03 | 93 | 1020.3 |
| 20260504174556 | 5 | 90 | 3.2 | 8.0 | 0.00 | 1.09 | 0.03 | 92 | 1020.5 |
| 20260504173043 | 5 | 17 | 0.0 | 4.8 | 0.00 | 1.09 | 0.03 | 92 | 1020.4 |
| 20260504171556 | 5 | 88 | 1.6 | 4.8 | 0.00 | 1.09 | 0.03 | 92 | 1020.5 |
| 20260504120105 | 1 | 118 | 1.6 | 9.7 | 0.00 | 1.09 | 0.03 | 96 | 1021.5 |
| 20260504081510 | 1 | 6 | 3.2 | 11.3 | 0.05 | 1.09 | 0.03 | 96 | 1022.1 |
| 20260504044553 | 1 | 96 | 0.0 | 4.8 | 0.18 | 0.71 | 0.71 | 95 | 1023.0 |
| 20260504043109 | 1 | 88 | 0.0 | 4.8 | 0.15 | 0.66 | 0.66 | 95 | 1023.3 |
| 20260504041501 | 2 | 61 | 0.0 | 8.0 | 0.15 | 0.61 | 0.61 | 94 | 1023.2 |